User: anonymous   Login
Location: Unspecified
(0.0000°N, 0.0000°E)
Time: 18:09:11
(UTC+00:00)
Language:

BADR-B - Orbit

View from above orbital plane
View from above orbital plane
View from above satellite
View from above satellite

Ground track
Ground track

The orbit data is extracted from the following two-line orbital elements,

1 27003U 01056C   18114.90296183 -.00000018 +00000-0 +28831-4 0  9993
2 27003 099.3953 252.0626 0019474 243.2030 116.7124 13.70234557818459
Epoch (UTC): 24 April 2018 21:40:15
Eccentricity: 0.0019474
inclination: 99.3953°
perigee height: 984 km
apogee height: 1013 km
right ascension of ascending node: 252.0626°
argument of perigee: 243.2030°
revolutions per day: 13.70234557
mean anomaly at epoch: 116.7124°
orbit number at epoch: 81845

The dashed part of the orbit path shows where the satellite is in the earth's shadow,  

DLR